Weather History for Quillayute, WA

Change the Weather History Date:

Saturday, June 8, 2013

  Actual Average Record
Temperature  
Mean Temperature 55 °F 54 °F  
Max Temperature 64 °F 62 °F 84 °F (1969)
Min Temperature 46 °F 47 °F 36 °F (1974)
Degree Days  
Heating Degree Days 10 11  
Month to date heating degree days 63 89  
Since 1 June heating degree days 63 89  
Since 1 July heating degree days 5132 5557  
Cooling Degree Days 0 0  
Month to date cooling degree days 0 0  
Year to date cooling degree days 3 1  
Since 1 June cooling degree days 0 0  
Growing Degree Days 5 (Base 50)    
Moisture  
Dew Point 47 °F    
Average Humidity 71    
Maximum Humidity 86    
Minimum Humidity 56    
Precipitation  
Precipitation 0.00 in 0.14 in 0.99 in (1981)
Month to date precipitation 0.06 1.14  
Year to date precipitation 55.96 49.89  
Sea Level Pressure  
Sea Level Pressure 30.20 in    
Wind  
Wind Speed 5 mph (WNW)    
Max Wind Speed 14 mph    
Max Gust Speed 17 mph    
Visibility 6 miles    
Events      
T = Trace of Precipitation, MM = Missing Value Source: NWS Daily Summary

Daily Weather History Graph

Daily Weather History Graph

Search for Another Location

Airport:

Trip Planner

Search our weather history database for the weather conditions in past years. The results will help you decide how hot, cold, wet, or windy it might be!

Date:

Astronomy

Jun. 08, 2013 Rise Set
Actual Time 5:19 AM PDT 9:15 PM PDT
Civil Twilight 4:39 AM PDT 9:56 PM PDT
Nautical Twilight 3:43 AM PDT 10:52 PM PDT
Astronomical Twilight 2:15 AM PDT 12:21 AM PDT
Moon 5:36 AM PDT (6/8) 9:17 PM PDT (6/8)
Length of Visible Light 17h 17m
Length of Day
15h 55m
New Moon, 0% of the Moon is Illuminated
Jun 8
New Moon
Jun 16
First Quarter
Jun 23
Full
Jun 29
Last Quarter
Jul 8
New

Hourly Weather History & Observations

Time (PDT) Temp. Dew Point Humidity Pressure Visibility Wind Dir Wind Speed Gust Speed Precip Events Conditions
12:28 AM 48.2 °F 44.6 °F 87% 30.20 in 6.0 mi ESE 3.5 mph - N/A   Mostly Cloudy
12:53 AM 48.9 °F 45.0 °F 86% 30.22 in 6.0 mi Calm Calm - N/A   Overcast
1:33 AM 48.2 °F 44.6 °F 87% 30.20 in 5.0 mi Calm Calm - N/A   Scattered Clouds
1:42 AM 48.2 °F 44.6 °F 87% 30.20 in 5.0 mi Calm Calm - N/A   Mostly Cloudy
1:53 AM 48.0 °F 43.0 °F 83% 30.20 in 6.0 mi Calm Calm - N/A   Haze
2:00 AM 46.4 °F 42.8 °F 87% 30.19 in 5.0 mi Calm Calm - N/A   Overcast
2:53 AM 48.9 °F 44.1 °F 83% 30.21 in 6.0 mi Calm Calm - N/A   Haze
3:12 AM 48.2 °F 44.6 °F 87% 30.21 in 6.0 mi Calm Calm - N/A   Mostly Cloudy
3:40 AM 46.4 °F 42.8 °F 87% 30.21 in 3.0 mi Calm Calm - N/A   Scattered Clouds
3:53 AM 46.9 °F 43.0 °F 86% 30.22 in 5.0 mi Calm Calm - N/A   Scattered Clouds
4:12 AM 46.4 °F 42.8 °F 87% 30.20 in 6.0 mi Calm Calm - N/A   Mostly Cloudy
4:23 AM 46.4 °F 42.8 °F 87% 30.19 in 5.0 mi Calm Calm - N/A   Mostly Cloudy
4:38 AM 46.4 °F 42.8 °F 87% 30.19 in 6.0 mi Calm Calm - N/A   Mostly Cloudy
4:53 AM 46.9 °F 43.0 °F 86% 30.20 in 6.0 mi Calm Calm - N/A   Mostly Cloudy
5:20 AM 46.4 °F 42.8 °F 87% 30.20 in 6.0 mi Calm Calm - N/A   Mostly Cloudy
5:53 AM 46.9 °F 43.0 °F 86% 30.20 in 4.0 mi Calm Calm - N/A   Overcast
6:53 AM 48.9 °F 45.0 °F 86% 30.21 in 5.0 mi Calm Calm - N/A   Mostly Cloudy
7:53 AM 53.1 °F 48.0 °F 83% 30.20 in 5.0 mi Calm Calm - N/A   Haze
8:02 AM 53.6 °F 48.2 °F 82% 30.20 in 5.0 mi Calm Calm - N/A   Haze
8:12 AM 53.6 °F 48.2 °F 82% 30.20 in 5.0 mi Calm Calm - N/A   Haze
8:53 AM 57.0 °F 50.0 °F 77% 30.21 in 5.0 mi Calm Calm - N/A   Haze
9:40 AM 57.2 °F 48.2 °F 72% 30.21 in 5.0 mi West 4.6 mph - N/A   Haze
9:53 AM 57.0 °F 48.0 °F 72% 30.21 in 5.0 mi West 8.1 mph - N/A   Haze
10:31 AM 59.0 °F 48.2 °F 67% 30.21 in 6.0 mi West 6.9 mph - N/A   Haze
10:48 AM 57.2 °F 48.2 °F 72% 30.21 in 6.0 mi NW 4.6 mph - N/A   Haze
10:53 AM 57.9 °F 48.0 °F 70% 30.21 in 6.0 mi NW 4.6 mph - N/A   Haze
11:53 AM 57.9 °F 48.0 °F 70% 30.22 in 5.0 mi West 5.8 mph - N/A   Haze
12:13 PM 60.8 °F 48.2 °F 63% 30.21 in 6.0 mi Variable 3.5 mph - N/A   Haze
12:23 PM 60.8 °F 46.4 °F 59% 30.21 in 6.0 mi West 6.9 mph - N/A   Haze
12:53 PM 60.1 °F 46.9 °F 62% 30.22 in 6.0 mi West 9.2 mph - N/A   Haze
1:02 PM 60.8 °F 48.2 °F 63% 30.21 in 6.0 mi WNW 10.4 mph - N/A   Haze
1:53 PM 60.1 °F 48.0 °F 64% 30.22 in 6.0 mi WNW 10.4 mph - N/A   Haze
2:53 PM 64.0 °F 48.9 °F 58% 30.21 in 7.0 mi WNW 11.5 mph - N/A   Mostly Cloudy
3:03 PM 64.4 °F 48.2 °F 56% 30.21 in 7.0 mi West 9.2 mph 17.3 mph N/A   Mostly Cloudy
3:10 PM 64.4 °F 48.2 °F 56% 30.20 in 7.0 mi WNW 8.1 mph - N/A   Scattered Clouds
3:26 PM 62.6 °F 48.2 °F 59% 30.20 in 6.0 mi Variable 6.9 mph - N/A   Haze
3:53 PM 62.1 °F 48.0 °F 60% 30.20 in 6.0 mi Variable 5.8 mph 17.3 mph N/A   Haze
4:09 PM 62.6 °F 48.2 °F 59% 30.20 in 6.0 mi WNW 10.4 mph - N/A   Haze
4:53 PM 62.1 °F 48.0 °F 60% 30.20 in 6.0 mi NW 9.2 mph - N/A   Haze
5:53 PM 61.0 °F 48.0 °F 62% 30.19 in 5.0 mi NW 9.2 mph - N/A   Haze
6:00 PM 62.6 °F 48.2 °F 59% 30.19 in 5.0 mi WNW 9.2 mph - N/A   Haze
6:28 PM 60.8 °F 48.2 °F 63% 30.18 in 5.0 mi WNW 10.4 mph - N/A   Haze
6:39 PM 60.8 °F 48.2 °F 63% 30.18 in 5.0 mi NW 8.1 mph - N/A   Haze
6:53 PM 60.1 °F 48.0 °F 64% 30.18 in 5.0 mi WNW 10.4 mph - N/A   Haze
7:53 PM 57.9 °F 48.0 °F 70% 30.19 in 5.0 mi NW 9.2 mph - N/A   Haze
8:53 PM 55.9 °F 48.0 °F 75% 30.17 in 4.0 mi NW 4.6 mph - N/A   Haze
9:53 PM 55.0 °F 48.0 °F 77% 30.18 in 6.0 mi NW 4.6 mph - N/A   Haze
10:53 PM 55.0 °F 48.9 °F 80% 30.18 in 6.0 mi NNW 3.5 mph - N/A   Haze
11:53 PM 55.0 °F 48.9 °F 80% 30.17 in 6.0 mi NW 3.5 mph - N/A   Haze